Weather History for KLGU - July, 2013

Change the Weather History Date:

Friday, July 12, 2013

  Actual Average (KMLD) Record (KMLD)
Temperature  
Mean Temperature 74 °F -  
Max Temperature 87 °F 89 °F - (-1)
Min Temperature 61 °F 48 °F - (-1)
Cooling Degree Days 9    
Growing Degree Days 24 (Base 50)    
Moisture  
Dew Point 49 °F    
Average Humidity 48    
Maximum Humidity 81    
Minimum Humidity 20    
Precipitation  
Precipitation 0.00 in - - ()
Sea Level Pressure  
Sea Level Pressure 29.87 in    
Wind  
Wind Speed 5 mph (WSW)    
Max Wind Speed 12 mph    
Max Gust Speed -    
Visibility 10 miles    
Events Rain    
Averages and records for this station are not official NWS values.
T = Trace of Precipitation, MM = Missing Value Source: NWS Daily Summary

Daily Weather History Graph

Daily Weather History Graph

Search for Another Location

Airport or City:

Trip Planner

Search our weather history database for the weather conditions in past years. The results will help you decide how hot, cold, wet, or windy it might be!

Date:

Astronomy

Jul. 12, 2013 Rise Set
Actual Time 6:03 AM MDT 9:02 PM MDT
Civil Twilight 5:30 AM MDT 9:35 PM MDT
Nautical Twilight 4:47 AM MDT 10:17 PM MDT
Astronomical Twilight 3:58 AM MDT 11:07 PM MDT
Moon 10:28 AM MDT (7/12) 11:09 PM MDT (7/12)
Length of Visible Light 16h 05m
Length of Day
14h 58m
Waxing Crescent, 18% of the Moon is Illuminated
Jul 12
Waxing Crescent
Jul 15
First Quarter
Jul 22
Full
Jul 29
Last Quarter
Aug 6
New

Hourly Weather History & Observations

Time (MDT) Temp. Dew Point Humidity Pressure Visibility Wind Dir Wind Speed Gust Speed Precip Events Conditions
12:51 AM 68.0 °F 48.0 °F 49% 29.87 in 10.0 mi South 8.1 mph - N/A   Clear
1:51 AM 68.0 °F 46.9 °F 47% 29.85 in 10.0 mi South 4.6 mph - N/A   Partly Cloudy
2:51 AM 62.1 °F 54.0 °F 75% 29.86 in 10.0 mi North 5.8 mph - N/A   Clear
3:51 AM 63.0 °F 54.0 °F 72% 29.86 in 10.0 mi Calm Calm - 0.00 in Rain Light Rain
4:51 AM 62.1 °F 54.0 °F 75% 29.88 in 10.0 mi North 4.6 mph - 0.00 in   Partly Cloudy
5:51 AM 61.0 °F 55.0 °F 81% 29.90 in 10.0 mi Calm Calm - 0.00 in   Clear
6:51 AM 61.0 °F 55.0 °F 81% 29.92 in 10.0 mi Calm Calm - N/A   Clear
7:51 AM 62.1 °F 55.0 °F 78% 29.94 in 10.0 mi WNW 3.5 mph - N/A   Clear
8:51 AM 64.9 °F 53.1 °F 65% 29.94 in 10.0 mi NNW 3.5 mph - N/A   Scattered Clouds
9:51 AM 68.0 °F 53.1 °F 59% 29.95 in 10.0 mi WNW 4.6 mph - N/A   Partly Cloudy
10:51 AM 70.0 °F 53.1 °F 55% 29.94 in 10.0 mi NW 4.6 mph - N/A   Clear
11:51 AM 75.9 °F 54.0 °F 46% 29.93 in 10.0 mi Variable 4.6 mph - N/A   Clear
12:51 PM 80.1 °F 51.1 °F 36% 29.90 in 10.0 mi Variable 5.8 mph - N/A   Clear
1:51 PM 82.0 °F 51.1 °F 34% 29.88 in 10.0 mi WSW 6.9 mph - N/A   Clear
2:51 PM 82.9 °F 48.0 °F 29% 29.88 in 10.0 mi Calm Calm - N/A   Clear
3:51 PM 84.0 °F 44.1 °F 25% 29.85 in 10.0 mi Variable 5.8 mph - N/A   Clear
4:51 PM 87.1 °F 44.1 °F 22% 29.83 in 10.0 mi South 11.5 mph - N/A   Clear
5:51 PM 84.9 °F 43.0 °F 23% 29.82 in 10.0 mi SW 9.2 mph - N/A   Clear
6:51 PM 84.9 °F 41.0 °F 21% 29.81 in 10.0 mi SW 5.8 mph - N/A   Clear
7:51 PM 84.9 °F 39.9 °F 20% 29.81 in 10.0 mi SW 3.5 mph - N/A   Clear
8:51 PM 79.0 °F 45.0 °F 30% 29.82 in 10.0 mi SSE 5.8 mph - N/A   Clear
9:51 PM 73.9 °F 45.0 °F 35% 29.84 in 10.0 mi Calm Calm - N/A   Clear
10:51 PM 70.0 °F 48.0 °F 46% 29.86 in 10.0 mi SW 3.5 mph - N/A   Clear
11:51 PM 66.0 °F 46.0 °F 48% 29.86 in 10.0 mi Calm Calm - N/A   Clear